OPS 9343

operational
NORAD ID: 3286 Int'l Des: 1968-050 Owner: SAMSO Country: US
MEOCIRCULAR

关于 OPS 9343

正在加载描述...

实时位置

正在加载3D地球...

即将过境

高度历史

Altitude vs Time

uPlot chart will show altitude changes over time

两行轨道根数

1 3286U 68050C 26061.12948340 -.00000113 00000-0 00000+0 0 9999
2 3286 7.0022 52.9189 0018094 152.6203 294.6144 1.07758259 46304
Epoch: Mar 2, 2026 • Age: 63 hours

当前状态

高度 33883.2 km
速度 3.14 km/s
星下点 -3.12°S, 0.93°E
类型 other

大型星座

Loading constellations...